sat.trackr.live / text

‹ back to catalog

STARLINK-5913

NORAD 55937 · 2023-037Z

PAYLOAD ACTIVE UNKNOWN

§ Identity

Operator
Country
US
Launch date
2023-03-17
Launch site
AFWTR
Launch vehicle
Mass (kg)
RCS (m²)

Purposes: comms

External: N2YO · Heavens-Above · Gunter

§ Orbital elements

Epoch: 2026-09-20T22:00:03.000096Z

Period
95.74 min
Inclination
70.0004°
Eccentricity
0.0005011
Mean motion
15.04089313 rev/d
Perigee alt
550.8 km
Apogee alt
557.8 km
Semi-major
6,932.4 km
B*
1.5939e-3
RAAN
152.1881°
Arg perigee
284.0737°
Mean anomaly
93.9784°
Rev number
571

§ Raw data

STARLINK-59131 55937U 23037Z   26263.91670139  .00022096  00000+0  15939-2 0  99962 55937  70.0004 152.1881 0005011 284.0737  93.9784 15.04089313  5713

JSON: /api/v1/satellites/55937 · /tle

For live sub-satellite position, see the globe view (requires WebGL).

§ Visibility from observer

Set your observer location to see the next 7 days of passes ≥ 10°. The values pass through the URL so the page stays shareable.

No JS? Fill the form by hand. The geolocation button needs JavaScript.